Location: Marcé
(47.5801°N, 0.3280°W)
Time: 19:58:05
(UTC+01:00)

Vanguard 3 - Pass Details

Date: 10 December 2021
Orbit: 508 x 3260 km, 33.3° (Epoch: 17 January)

Event Time Altitude Azimuth Distance (km) Brightness Sun altitude
Rises 04:18:44 0° 245° (WSW) 6,607 - -42.6°
Reaches altitude 10° 04:22:59 10° 241° (WSW) 5,828 - -41.9°
Exits shadow 04:35:46 44° 207° (SSW) 4,048 10.3 -39.8°
Maximum altitude 04:40:56 51° 174° (S) 3,806 10.3 -38.9°
Drops below altitude 10° 04:57:50 10° 106° (ESE) 5,523 12.0 -36.1°
Sets 05:01:43 0° 101° (ESE) 6,255 12.6 -35.5°
